Weather in Nanping

China     26°38′54″N   118°10′49″E
temp.,
°C
wind,
m/s
gust,
m/s
humid.,
%
clouds,
%
prec.,
mm/h
press.,
hPa
HPBL,
m
15 april, thu
thu1523:00+14sse1296100 0.9 1017198
02:00+13s2297100 5.1 1016203
05:00+13sse1296100 2.2 1015223
08:00+13sse129663 2.9 1017196
11:00+15s2288100 0.1 1017416
14:00+16ese0082100 0.1 1015420
17:00+15nnw1195100 0.5 101596
20:00+15n1197100 0.8 101730
16 april, fri
fri1623:00+14n129698 0.0 101779
02:00+14n119699 0.0 101673
05:00+14nne129699 0.0 101784
08:00+17wsw0087100 0.0 1017287
11:00+17nw008599 0.0 1017314
14:00+25nne006123 0.0 1014978
17:00+23wnw016736 0.0 1013735
20:00+19se008586 0.3 101511
17 april, sat
sat1723:00+19nnw1294100 0.6 101642
02:00+18n1399100 7.1 1016190
05:00+17n2396100 1.7 1017103
08:00+17nnw2294100 1.8 1020151
11:00+19nnw238299 0.2 1021604
14:00+21nne356433 0.3 10191013
17:00+21nne256594 0.1 1019762
20:00+17n118289 0.1 102011
18 april, sun
sun1823:00+16ne1185100 0.0 102111
02:00+15ene1191100 0.0 102015
05:00+14ese119660 0.0 102025
08:00+17ese117797 0.0 1021475
11:00+22se125495 0.0 10191262
14:00+25se014313 0.0 10151633
17:00+23ssw1152100 0.0 1015814
20:00+17se2273100 0.0 101742
19 april, mon
mon1923:00+15se2378100 0.0 101890
02:00+14sse2379100 0.0 1017162
05:00+13sse1282100 0.0 101675
08:00+16sse2267100 0.0 1017335
11:00+21s115424 0.0 1016652
14:00+25sw114531 0.0 10141415
17:00+24wsw1157100 0.0 1012237
20:00+20se116598 0.0 101420